Regional Weather Roundup
Issued by NWS

Home | Current Version | Previous Version | Text Only | Print | Product List | Glossary On
Versions: 1 2 3 4 5 6 7 8 9 10 11 12 13 14 15 16 17 18 19 20 21 22 23 24 25 26 27 28 29 30 31 32 33 34 35 36 37 38 39 40 41 42 43 44 45 46 47 48 49 50
000
ASUS42 KFFC 241410
RWRGA
WEATHER ROUNDUP FOR GEORGIA
NATIONAL WEATHER SERVICE PEACHTREE CITY GA
1000 AM EDT SUN SEP 24 2017

NOTE: "FAIR" INDICATES FEW OR NO CLOUDS BELOW 12,000 FEET WITH NO
SIGNIFICANT WEATHER AND/OR OBSTRUCTIONS TO VISIBILITY.

* = USE WITH CAUTION. THE STATIONS MARKED WITH AN ASTERISK MAY NOT
REPORT WEATHER SUCH AS PRECIPITATION, FOG, OR THUNDER AND ARE NOT
QUALITY CONTROLLED BY NWS.

THE REMARK "TC" DENOTES TEMPERATURE READING IN DEGREES CELSIUS.

GAZ001>058-241500-
NORTH GEORGIA

CITY           SKY/WX    TMP DP  RH WIND       PRES   REMARKS
ATLANTA        CLOUDY    73  65  75 E10       30.11R
ATHENS         CLOUDY    72  65  78 NE6       30.11S
CHAMBLEE       MOSUNNY   73  63  70 E6        30.11R
PEACHTREE CITY CLOUDY    74  67  78 CALM      30.10R
ROME           SUNNY     73  68  84 CALM      30.10R
WEST ATLANTA   MOSUNNY   72  67  84 NE6       30.10R
GAINESVILLE    SUNNY     73  61  65 E10       30.15R
CARTERSVILLE   SUNNY     74  66  76 VRB5      30.11R


CITY           SKY/WX    TMP DP  RH WIND       PRES   REMARKS
DALTON*        SUNNY     68  66  94 CALM      30.13R
LAWRENCEVILLE* MOSUNNY   72  63  73 E12       30.12S
MARIETTA       PTSUNNY   72  65  76 NE6       30.11R
KENNESAW*      MOSUNNY   72  64  76 VRB3      30.12R
CANTON*        SUNNY     75  64  69 NE8       30.14S
$$

GAZ059>098-102>109-241500-
CENTRAL GEORGIA

CITY           SKY/WX    TMP DP  RH WIND       PRES   REMARKS
AUGUSTA-BUSH   CLOUDY    75  67  76 N5        30.06R
AUGUSTA-DANIEL CLOUDY    74  66  76 N7        30.08R
COLUMBUS       SUNNY     80  64  58 E8        30.05R
MACON          CLOUDY    77  70  79 NE9       30.06S
ROBINS AFB     MOSUNNY   74  69  83 NE6       30.06R


CITY           SKY/WX    TMP DP  RH WIND       PRES   REMARKS
LAGRANGE*      MOSUNNY   76  69  79 CALM      30.08R
SYLVANIA*      SUNNY     77  71  80 NE12      30.05S
$$

GAZ099>101-110>166-241500-
SOUTH GEORGIA

CITY           SKY/WX    TMP DP  RH WIND       PRES   REMARKS
SAVANNAH       MOSUNNY   79  71  76 NE13      30.02R
VALDOSTA       MOSUNNY   78  72  81 NE8       29.99S
ALMA           SUNNY     78  69  73 VRB7      30.02R
ST SIMONS      CLOUDY    80  74  81 N10G17    29.98R
FT STEWART     SUNNY     77  69  75 NE9       30.00R
ALBANY         SUNNY     76  71  85 NE9       30.04R
HUNTER AFB     MOSUNNY   77  71  81 NE12      29.99R
MOODY AFB      CLOUDY    75  72  89 NE8       29.99S
BRUNSWICK      MOSUNNY   79  70  73 NE10G16   29.99S


CITY           SKY/WX    TMP DP  RH WIND       PRES   REMARKS
BAINBRIDGE*    MOSUNNY   79  75  89 NE8       30.00R
MOULTRIE*      MOSUNNY   77  72  83 NE8       30.02R
VIDALIA*       SUNNY     77  70  78 NE9       30.05R
WAYCROSS*      MOSUNNY   79  70  74 NE7G17    30.01R
DOUGLAS*       SUNNY     77  70  78 NE10G20   30.04R
$$




USA.gov is the U.S. government's official web portal to all federal, state and local government web resources and services.